Satellite: NO-44
Catalog number: 26931
Epoch time:      10097.82361727
Element set:    0429
Inclination:      067.0533 deg
RA of node:       025.2596 deg
Eccentricity:    0.0006149
Arg of perigee:   264.6737 deg
Mean anomaly:     095.3664 deg
Mean motion:   14.29589799 rev/day
Decay rate:       -6.1e-07 rev/day^2
Epoch rev:           44469
Checksum:              347

Satellite: SO-50
Catalog number: 27607
Epoch time:      10097.87397247
Element set:     144
Inclination:      064.5579 deg
RA of node:       210.0810 deg
Eccentricity:    0.0035459
Arg of perigee:   110.0216 deg
Mean anomaly:     250.4730 deg
Mean motion:   14.71523327 rev/day
Decay rate:       2.70e-06 rev/day^2
Epoch rev:           39203
Checksum:              277

Satellite: CO-55
Catalog number: 27844
Epoch time:      10098.58340060
Element set:     820
Inclination:      098.7109 deg
RA of node:       108.5542 deg
Eccentricity:    0.0010534
Arg of perigee:   016.6131 deg
Mean anomaly:     343.5393 deg
Mean motion:   14.20696630 rev/day
Decay rate:        5.2e-07 rev/day^2
Epoch rev:           35120
Checksum:              275

Satellite: CO-57
Catalog number: 27848
Epoch time:      10098.53241069
Element set:     770
Inclination:      098.7154 deg
RA of node:       107.5860 deg
Eccentricity:    0.0010322
Arg of perigee:   020.6497 deg
Mean anomaly:     339.5094 deg
Mean motion:   14.20490700 rev/day
Decay rate:        4.7e-07 rev/day^2
Epoch rev:           35115
Checksum:              297

Satellite: AO-51
Catalog number: 28375
Epoch time:      10098.55758014
Element set:     646
Inclination:      098.0604 deg
RA of node:       096.0274 deg
Eccentricity:    0.0084019
Arg of perigee:   309.5038 deg
Mean anomaly:     049.8746 deg
Mean motion:   14.40678133 rev/day
Decay rate:        4.8e-07 rev/day^2
Epoch rev:           30348
Checksum:              321

Satellite: GENESAT1
Catalog number: 29655
Epoch time:      10098.48600024
Element set:       4
Inclination:      040.0171 deg
RA of node:       119.6357 deg
Eccentricity:    0.0007193
Arg of perigee:   187.4833 deg
Mean anomaly:     172.5879 deg
Mean motion:   15.80823222 rev/day
Decay rate:    1.09210e-03 rev/day^2
Epoch rev:           18891
Checksum:              291

Satellite: CP3
Catalog number: 31129
Epoch time:      10098.62756236
Element set:     548
Inclination:      097.9475 deg
RA of node:       141.8968 deg
Eccentricity:    0.0103695
Arg of perigee:   089.3027 deg
Mean anomaly:     272.0040 deg
Mean motion:   14.52234529 rev/day
Decay rate:       1.86e-06 rev/day^2
Epoch rev:           15776
Checksum:              324

Satellite: CO-65
Catalog number: 32785
Epoch time:      10098.67251598
Element set:     649
Inclination:      097.9007 deg
RA of node:       164.5412 deg
Eccentricity:    0.0015568
Arg of perigee:   147.0610 deg
Mean anomaly:     213.1606 deg
Mean motion:   14.81622554 rev/day
Decay rate:       4.57e-06 rev/day^2
Epoch rev:           10519
Checksum:              314

Satellite: KKS-1
Catalog number: 33493
Epoch time:      10098.73085697
Element set:     369
Inclination:      098.0761 deg
RA of node:       217.6649 deg
Eccentricity:    0.0020277
Arg of perigee:   009.8193 deg
Mean anomaly:     350.3323 deg
Mean motion:   14.80931375 rev/day
Decay rate:       8.64e-06 rev/day^2
Epoch rev:            6520
Checksum:              319

Satellite: SOHLA-1
Catalog number: 33496
Epoch time:      10098.84360693
Element set:      72
Inclination:      098.0491 deg
RA of node:       208.8422 deg
Eccentricity:    0.0007723
Arg of perigee:   067.9032 deg
Mean anomaly:     292.2994 deg
Mean motion:   14.69483749 rev/day
Decay rate:       2.56e-06 rev/day^2
Epoch rev:            6469
Checksum:              335

/EX
SB KEPS @ AMSAT  $ORB10098.W
Orbital Elements  10098.WEATHER

HR AMSAT ORBITAL ELEMENTS FOR WEATHER SATELLITES
FROM WA5QGD FORT WORTH,TX April 8, 2010
Send Subscribe/unsubscribe to KEPS at http://www.amsat.org/mailman/listinfo/kep
BID: ORB10098.W
TO ALL RADIO AMATEURS BT

Satellite: NOAA-10
Catalog number: 16969
Epoch time:      10097.63593151
Element set:    0019
Inclination:      098.6643 deg
RA of node:       127.2470 deg
Eccentricity:    0.0013103
Arg of perigee:   061.1904 deg
Mean anomaly:     299.0593 deg
Mean motion:   14.27411211 rev/day
Decay rate:      -1.04e-06 rev/day^2
Epoch rev:           22551
Checksum:              272

Satellite: NOAA-11
Catalog number: 19531
Epoch time:      10097.80844314
Element set:    0034
Inclination:      098.7670 deg
RA of node:       188.0311 deg
Eccentricity:    0.0011714
Arg of perigee:   353.3990 deg
Mean anomaly:     006.7038 deg
Mean motion:   14.14920426 rev/day
Decay rate:        5.7e-07 rev/day^2
Epoch rev:           11118
Checksum:              274

Satellite: NOAA-12
Catalog number: 21263
Epoch time:      10097.95654058
Element set:    0520
Inclination:      098.7675 deg
RA of node:       111.1195 deg
Eccentricity:    0.0012622
Arg of perigee:   015.1903 deg
Mean anomaly:     344.9666 deg
Mean motion:   14.25626398 rev/day
Decay rate:        2.2e-07 rev/day^2
Epoch rev:           98239
Checksum:              306

